RH
77 69 61 55 51 48 47 42 41 42 45 47 46 44 41 38 38 38 37 34 30 28 26 27 28 32 39 46 49 49 46 44 42 38 31 30 29 28 28 28 28 29 29 30 31 32 33 34 35 38 43 46 48 49 51 53 55 57 60 62 64 66 69 70 71 73 74 75 76 77 78 78 78 79 80 79 79 80 80 82 82 82 82 83 83 83
66 60 55 51 48 46 47 42 40 41 43 46 47 48 46 44 43 42 43 41 37 34 32 34 35 38 43 51 57 60 59 57 52 47 41 38 37 37 38 39 40 40 41 42 43 44 44 45 45 47 49 52 53 53 54 54 56 57 58 60 61 62 63 64 65 65 65 68 69 70 73 73 73 74 74 75 75 76 77 78 79 80 81 82 82 82
63 59 56 52 50 50 50 47 45 45 46 48 49 50 49 48 47 46 46 46 43 40 38 40 42 46 50 56 62 68 70 70 66 59 53 52 51 51 52 52 53 54 55 56 55 55 55 55 55 55 56 57 57 57 56 56 56 57 58 58 58 58 57 56 56 57 57 59 61 63 65 65 66 66 67 68 70 72 73 75 76 77 78 79 80 80
61 61 59 57 55 55 56 53 51 49 49 50 50 51 51 50 49 48 48 48 47 45 43 43 46 51 55 58 61 65 69 71 71 68 61 61 64 66 66 65 65 66 67 68 67 67 65 64 64 63 63 63 62 61 59 58 57 57 57 56 56 55 54 52 52 53 53 55 57 59 62 62 63 64 66 68 70 72 74 75 76 77 78 79 79 78
59 59 59 58 58 59 59 57 54 52 51 51 52 53 53 53 52 50 49 48 47 46 45 45 48 52 58 59 60 63 66 68 70 69 64 65 71 76 76 76 75 74 74 74 74 73 72 71 70 70 70 69 68 66 64 63 63 63 63 64 64 65 65 65 67 69 71 71 72 75 78 77 78 81 83 83 84 85 85 86 86 87 87 85 84 83
55 56 57 57 58 60 62 61 60 58 56 55 55 55 56 55 54 53 51 49 47 46 45 45 48 53 60 61 61 61 64 66 68 67 64 65 70 76 80 80 81 81 80 79 78 77 76 76 76 76 76 75 75 75 76 77 78 80 81 83 85 87 88 89 91 93 96 94 95 96 97 96 97 98 98 98 98 98 96 97 97 96 94 93 92 91
54 56 57 57 58 60 63 65 65 64 63 62 60 59 58 58 57 56 56 54 51 48 46 46 48 52 60 63 63 62 64 66 66 65 62 63 66 71 78 79 81 83 85 85 83 82 80 80 81 82 83 84 85 87 90 93 95 95 96 98 99 99 99 100 100 100 100 100 99 99 98 99 98 98 98 99 99 98 98 98 98 98 98 97 97 97
56 57 60 60 61 62 64 68 70 70 68 68 68 67 65 63 62 61 60 60 58 54 50 49 50 54 60 63 64 65 65 67 67 66 65 63 64 68 76 78 80 83 86 87 86 85 84 85 87 89 90 92 94 96 98 99 99 99 99 99 99 99 100 99 99 99 98 98 97 97 97 97 97 97 97 97 97 96 96 97 97 97 97 97 97 97
58 59 62 64 66 67 67 70 73 75 74 74 75 75 75 72 69 67 65 65 64 61 57 54 55 58 61 61 63 65 67 68 69 69 69 65 63 66 72 76 78 80 84 85 85 85 85 87 90 91 93 95 97 98 98 98 98 98 98 98 98 98 98 97 97 96 96 96 96 96 96 96 96 96 96 96 95 95 95 95 95 95 95 95 94 94
60 61 63 67 70 72 72 73 76 79 80 79 80 81 82 80 77 74 70 70 69 67 63 60 61 64 63 61 62 65 67 67 68 70 70 66 64 65 70 72 74 77 80 82 82 83 83 85 87 89 90 92 94 96 97 97 97 97 97 96 96 96 97 96 96 96 96 96 96 96 97 96 96 95 96 95 95 94 93 93 94 94 95 94 94 93
64 64 66 70 74 76 77 78 80 83 85 84 84 84 85 85 83 80 77 75 74 72 68 64 65 68 67 64 64 65 67 66 66 67 68 66 64 65 68 69 71 73 76 77 79 80 80 82 83 85 85 87 91 94 95 96 96 96 95 96 96 96 96 97 97 97 97 97 97 97 96 95 94 94 95 94 94 93 93 93 95 96 96 96 95 94
70 69 69 74 77 80 82 83 85 87 89 89 89 88 89 88 86 84 81 79 78 76 73 68 68 69 68 68 68 68 68 68 67 68 68 67 65 65 67 68 69 70 71 72 74 76 76 76 78 80 82 83 87 92 94 94 94 94 95 95 95 96 96 96 96 96 97 97 98 97 95 94 94 93 93 94 93 93 93 93 95 97 96 96 96 94
76 75 75 77 81 83 85 86 87 88 90 91 92 93 92 91 88 86 83 82 81 79 76 72 70 69 68 69 71 72 71 70 69 69 69 68 67 66 67 68 68 68 68 68 69 70 71 71 72 75 78 80 84 89 91 91 92 93 93 94 94 95 95 96 96 96 96 97 97 97 96 95 94 93 93 94 95 95 94 94 95 96 96 94 93 92
82 81 80 81 82 85 87 87 88 88 90 92 94 95 94 93 90 88 86 84 82 79 76 73 72 71 69 71 73 74 72 72 71 71 70 69 67 66 67 67 67 67 67 67 67 68 68 68 69 71 74 78 82 85 87 88 90 91 92 92 93 94 94 95 95 95 96 96 96 96 96 96 95 94 94 95 94 94 95 95 95 95 94 92 90 90
85 85 84 84 84 86 88 89 89 89 90 93 94 95 94 93 92 90 88 87 84 81 77 74 73 72 70 73 75 75 72 73 74 73 72 70 68 67 67 67 66 66 66 66 66 66 67 68 69 70 71 76 79 82 84 86 87 89 90 91 91 92 92 93 93 93 94 94 95 95 96 96 96 95 94 95 95 94 94 94 93 93 93 91 90 89
87 87 87 86 86 88 90 91 91 91 92 93 94 94 94 93 93 92 91 89 87 84 80 76 75 74 73 73 76 77 74 74 76 76 74 71 69 68 68 67 66 66 66 66 66 66 67 67 68 68 70 74 77 80 82 84 85 87 88 89 89 89 90 90 90 91 91 92 93 93 94 94 94 94 93 92 91 91 90 90 90 90 91 90 90 89
88 89 89 88 89 90 92 93 94 93 93 93 93 94 94 94 93 93 92 90 89 87 85 81 80 79 76 73 76 80 77 75 76 77 75 73 71 70 70 69 68 67 66 66 67 67 67 67 67 67 69 72 76 78 80 82 83 85 85 85 86 86 87 87 88 89 89 90 90 91 91 91 90 90 89 89 89 89 88 88 89 89 89 89 89 89
90 90 91 91 92 92 93 94 95 95 94 94 94 93 93 93 93 92 92 91 90 89 88 85 83 81 81 78 81 83 80 77 77 78 77 75 73 72 73 71 70 69 68 68 68 68 68 67 67 67 68 71 74 77 78 80 81 82 83 83 83 84 85 86 87 88 89 89 90 90 91 90 89 88 88 88 88 88 88 88 88 88 88 89 90 91
92 93 94 94 93 93 93 94 95 95 95 95 94 93 92 92 92 92 92 91 90 90 89 87 85 83 81 82 85 85 82 78 78 80 81 78 76 75 76 74 72 71 70 69 69 68 68 67 67 66 67 70 73 76 77 78 80 81 82 82 83 84 85 85 86 87 89 89 89 89 88 88 88 88 88 88 88 89 90 91 91 91 90 93 94 93
95 96 97 97 96 95 94 95 96 97 96 96 95 94 93 92 91 91 91 91 90 89 88 87 85 84 81 82 84 85 83 80 81 83 84 81 78 78 79 78 76 74 72 70 69 68 68 68 66 66 67 70 73 75 76 77 78 80 81 82 83 83 83 83 85 88 90 89 89 89 89 91 92 92 90 91 92 93 95 94 93 93 93 93 93 93
96 97 98 98 97 97 97 96 97 97 96 96 95 94 93 93 92 91 91 90 89 88 87 86 85 83 83 83 85 86 84 85 88 89 88 84 82 80 81 81 79 77 74 71 69 68 68 68 66 66 67 70 72 73 75 76 78 80 82 83 83 82 82 84 86 88 90 89 89 89 92 95 95 94 93 93 93 93 93 93 94 94 94 95 95 95
97 97 98 98 98 98 97 97 97 96 96 96 95 96 95 94 93 92 91 90 88 87 86 85 83 81 83 84 86 86 85 90 93 92 89 88 85 83 83 83 82 80 78 74 71 70 69 68 67 66 67 69 71 73 75 76 78 81 82 82 82 82 83 83 84 86 87 86 86 87 89 93 93 92 92 93 93 94 94 95 95 95 95 95 95 95
97 97 97 98 98 98 98 97 97 96 96 96 95 95 95 95 94 92 90 88 86 85 83 80 78 79 81 83 84 84 86 91 93 93 90 90 88 85 84 85 84 83 81 77 75 73 71 69 68 66 66 67 70 73 75 77 79 81 81 81 81 82 82 82 82 82 83 84 85 86 87 89 91 92 92 93 94 95 95 95 95 95 95 95 94 93
97 97 97 97 97 97 98 98 97 97 96 96 95 94 94 94 93 91 89 86 84 81 78 76 75 76 80 81 83 84 86 92 93 92 90 89 88 86 85 86 86 85 83 79 77 75 72 70 68 67 67 68 69 72 74 77 78 78 78 79 80 81 83 83 83 82 82 85 86 88 90 89 91 92 93 94 94 95 95 95 95 95 95 94 93 91
97 97 97 97 97 97 97 97 97 97 97 96 95 93 92 92 91 89 87 85 83 80 77 76 76 77 77 79 82 85 85 91 93 92 92 89 87 86 85 86 87 86 85 81 78 75 73 71 69 68 69 70 70 71 73 75 76 76 76 77 79 81 83 84 84 84 84 84 85 87 91 92 93 93 93 94 95 95 95 95 95 96 96 95 93 91
96 96 96 96 96 96 96 96 96 96 96 96 96 94 92 92 91 90 89 87 85 83 82 83 84 83 80 78 80 83 86 90 92 92 91 89 87 86 86 86 86 87 87 84 80 77 74 72 70 70 70 71 71 71 71 73 74 75 76 78 80 83 85 85 85 85 84 82 83 85 90 93 95 95 95 95 95 96 96 96 97 97 97 96 94 93
94 95 95 95 95 96 96 96 96 95 95 95 96 95 93 93 93 93 93 91 88 86 85 86 88 88 85 82 80 81 84 89 91 91 90 87 86 85 85 86 86 86 87 86 83 80 76 73 72 72 73 73 72 71 71 72 73 75 77 79 83 86 87 87 87 86 84 81 82 85 89 93 94 95 95 95 96 97 98 98 98 98 97 96 95 94
94 95 95 94 94 95 95 95 95 95 95 94 95 95 95 94 94 93 93 92 89 88 87 87 88 90 89 85 81 79 80 87 90 91 90 87 85 85 85 85 86 87 89 88 85 81 77 75 74 75 76 74 73 72 71 72 73 75 78 81 85 89 91 89 88 87 84 81 82 85 89 92 94 95 95 95 96 97 98 98 98 98 98 96 95 95
91 92 92 93 93 93 93 92 93 94 94 94 94 94 93 95 95 95 94 92 91 91 91 90 90 90 89 84 80 78 78 84 89 91 91 89 87 86 86 86 87 89 91 91 86 81 77 76 77 78 78 76 74 72 72 73 74 77 80 83 86 89 91 88 87 86 83 82 83 85 89 93 95 96 96 96 96 96 97 98 99 98 98 97 97 96
88 88 88 89 89 89 89 88 89 90 92 92 92 91 90 93 95 96 95 94 93 93 95 93 93 93 91 87 83 80 79 82 87 92 94 93 91 89 89 89 89 91 93 93 88 82 78 78 79 80 80 77 74 72 72 73 75 78 81 84 87 90 90 87 86 84 81 82 83 86 90 93 95 96 96 96 95 96 96 98 98 98 98 98 98 97
88 88 88 87 87 86 86 87 87 87 88 88 89 89 89 91 94 96 96 96 96 95 96 96 95 95 95 92 88 85 82 81 87 93 97 97 95 93 93 93 92 92 93 95 92 87 81 80 79 80 80 77 75 73 72 73 76 78 82 85 88 91 92 90 86 82 80 81 84 87 90 93 95 96 95 95 95 95 96 96 98 99 99 99 99 98
88 88 88 87 87 86 86 86 86 86 86 86 87 88 89 90 92 95 96 97 97 97 97 97 96 96 96 95 93 89 85 82 87 94 98 98 97 95 95 95 94 93 93 95 94 92 87 84 81 80 80 77 75 73 72 73 76 78 81 85 89 92 94 92 87 81 78 80 83 87 90 93 95 96 95 94 94 94 95 94 96 98 99 99 99 99
87 87 87 87 87 87 87 87 87 87 88 87 87 87 87 88 90 93 95 96 97 97 97 97 97 97 96 96 94 91 86 84 88 94 99 98 97 96 96 96 96 95 95 94 94 93 91 87 85 83 81 77 75 73 72 73 75 78 80 85 89 93 96 94 88 83 79 80 83 86 89 93 94 95 93 92 92 93 94 94 95 97 98 99 100 100
85 86 86 86 87 87 87 87 88 89 90 90 89 89 87 87 89 91 92 94 95 96 97 97 98 97 97 96 95 92 87 85 87 92 99 98 98 97 97 97 97 96 96 95 94 93 90 88 87 86 83 78 74 73 73 74 76 78 79 84 88 93 97 96 92 86 81 81 82 85 88 91 93 93 91 89 90 91 92 94 95 96 97 99 100 100
85 85 86 87 88 88 88 88 89 90 91 92 91 90 88 87 88 89 90 91 91 92 93 95 95 96 97 97 96 94 90 86 86 90 97 98 98 98 98 97 97 98 98 97 96 94 92 91 90 89 85 79 75 73 74 76 77 79 80 82 86 91 96 97 95 91 85 84 84 85 87 89 92 92 90 87 87 89 90 93 94 95 96 97 98 99
85 86 87 88 89 90 90 90 90 91 92 92 91 90 89 88 88 88 89 89 88 88 88 89 90 91 92 93 94 94 91 85 85 88 94 98 99 98 98 97 97 98 99 98 97 96 95 94 92 89 85 80 77 75 75 77 79 81 82 83 85 88 93 96 97 95 91 89 88 88 88 89 90 91 89 86 85 86 88 91 93 94 93 93 94 96
85 86 87 89 90 91 91 91 91 92 93 92 92 90 89 88 88 88 89 87 86 85 84 84 84 85 86 88 90 90 89 87 87 88 93 97 99 99 99 98 98 99 99 99 98 98 98 96 93 90 85 81 79 78 78 80 82 84 85 85 86 87 89 93 96 97 95 94 93 92 91 90 90 89 87 84 82 83 85 89 91 91 89 89 90 92
86 87 88 89 90 91 92 92 92 92 93 92 91 90 89 88 88 88 88 86 85 83 83 82 82 81 82 84 86 87 87 88 89 91 93 97 99 99 99 99 99 99 99 99 99 99 99 98 96 92 88 84 81 80 80 83 85 87 88 88 88 87 88 91 94 96 97 96 96 96 94 92 90 88 86 83 81 81 84 88 92 92 88 86 88 90
87 88 89 90 91 92 92 92 92 92 92 91 90 89 89 88 88 87 86 85 84 83 82 82 81 80 79 80 82 85 87 89 91 93 94 97 98 98 99 99 99 99 99 99 99 100 100 99 98 96 93 89 85 83 82 83 85 89 91 91 91 90 89 90 92 94 96 97 98 98 98 95 92 89 86 82 80 80 82 87 93 95 91 88 91 92
88 89 90 91 92 92 93 92 92 91 90 89 89 88 88 89 88 87 85 83 82 82 81 81 80 79 78 79 82 85 88 90 92 94 95 96 95 95 95 97 98 98 96 96 96 98 99 99 99 98 96 92 88 85 84 84 86 90 95 95 94 93 93 93 93 93 94 96 98 99 99 98 95 91 86 82 79 78 79 85 91 96 95 93 95 97
89 90 91 92 92 92 92 91 91 90 89 89 88 88 89 90 90 89 86 84 83 82 81 81 80 79 78 79 82 85 88 92 93 94 94 94 93 91 91 92 93 94 93 93 92 92 93 95 96 95 93 90 87 85 84 85 87 92 96 98 98 97 96 95 94 93 94 95 97 99 99 99 98 95 90 84 78 75 75 81 88 95 98 95 96 99
91 92 93 93 92 92 92 91 90 90 89 89 89 89 90 90 91 90 89 88 86 85 84 84 84 84 83 82 82 84 87 91 92 93 93 91 89 88 87 88 89 90 91 91 91 90 89 89 90 90 89 87 85 85 85 86 89 92 96 98 99 99 98 96 95 95 96 97 97 98 99 99 99 99 97 88 79 74 73 78 85 92 97 96 95 96
92 93 93 93 92 91 91 91 90 90 90 89 89 88 89 90 91 92 91 91 89 88 86 88 89 90 89 87 86 85 86 88 90 91 91 89 88 87 86 87 87 87 88 90 90 89 86 85 85 84 83 83 84 85 87 90 92 94 95 98 99 99 98 97 97 97 97 97 98 98 99 99 100 100 100 94 85 76 74 78 83 87 92 95 93 92
93 93 93 93 92 91 91 91 91 90 90 89 89 89 89 90 91 92 92 91 90 89 89 91 91 91 91 90 89 88 87 88 88 89 90 88 87 87 88 88 86 85 85 87 88 88 86 84 82 80 80 80 82 85 89 92 94 96 96 98 99 100 99 99 99 98 98 98 98 98 99 99 99 99 99 98 91 84 81 82 84 85 86 90 90 89
93 93 93 93 92 92 92 92 91 90 90 90 90 89 89 90 91 92 93 93 92 91 92 93 94 94 93 92 91 90 90 88 88 88 89 87 86 86 89 89 86 83 81 82 82 83 83 82 80 79 78 80 82 86 90 94 96 98 98 98 99 99 99 98 98 99 99 99 98 98 99 99 100 99 99 99 96 93 90 89 89 88 86 86 88 88
94 94 93 93 93 92 92 92 92 91 91 91 90 90 91 91 92 92 93 93 93 93 93 95 96 96 95 95 94 93 92 90 89 89 89 88 87 86 88 89 86 83 80 79 78 77 76 77 77 78 79 82 85 88 91 95 98 99 99 99 99 99 98 97 97 98 99 99 99 99 98 99 99 99 99 99 98 97 95 94 94 92 87 86 88 88
95 94 94 94 93 93 93 93 92 92 92 92 92 92 92 93 93 93 93 93 94 94 94 95 96 96 96 95 94 94 95 93 92 91 91 90 88 87 89 89 86 82 79 77 76 75 74 74 76 79 82 86 89 92 94 96 98 100 100 99 99 98 98 97 97 98 99 99 100 99 99 99 99 99 99 99 98 98 97 96 96 94 90 87 88 89
95 95 95 95 94 93 93 94 94 93 93 93 93 93 93 94 95 95 95 94 94 95 96 96 96 95 94 93 93 94 95 94 93 92 93 93 92 90 91 91 88 84 79 76 75 74 73 74 77 81 85 89 93 96 97 98 99 100 100 100 99 99 98 98 98 98 98 99 99 99 99 100 100 100 99 99 98 97 97 97 97 95 92 89 89 89
96 95 95 95 94 94 94 94 94 94 94 94 94 94 93 94 94 94 95 95 95 96 97 96 96 96 94 93 93 93 94 94 93 93 94 96 95 93 93 94 92 88 83 78 76 74 74 74 76 80 85 90 95 98 99 99 99 99 99 99 100 99 99 98 98 98 99 99 99 98 99 99 99 100 100 100 99 98 97 97 97 97 95 93 91 90
96 96 96 95 95 95 95 95 95 95 95 95 95 95 94 94 94 94 94 95 95 96 96 96 96 96 94 93 93 94 94 94 94 94 95 96 96 96 95 96 96 93 88 83 79 76 75 74 75 77 81 87 93 97 99 100 99 99 99 99 99 100 100 99 99 99 99 99 99 98 98 99 99 100 100 100 99 98 97 96 97 97 97 96 94 92
96 96 96 96 96 96 96 96 96 96 96 96 96 96 95 94 94 94 94 95 95 95 95 95 95 95 95 95 94 94 95 95 95 95 96 97 98 98 98 98 97 96 93 88 84 82 80 77 76 75 77 83 90 96 99 100 100 100 99 99 99 99 100 99 99 99 99 99 98 98 97 98 99 100 100 100 99 98 97 96 97 98 98 99 97 95
Wind_Speed
17 19 19 20 20 20 20 21 21 21 21 21 21 21 20 19 19 19 20 21 22 23 23 23 22 22 21 21 20 19 18 17 16 15 14 13 13 12 11 10 10 9 9 8 8 8 7 7 7 7 7 7 7 6 6 6 6 6 6 6 6 6 6 6 6 7 7 7 8 8 8 9 9 9 10 10 10 11 11 11 12 12 13 13 14 14
17 19 21 21 21 20 20 20 20 21 21 21 21 21 21 21 20 20 20 21 22 23 23 23 23 22 22 21 20 19 18 17 16 16 15 14 13 12 11 10 10 9 9 9 9 8 8 8 8 8 8 8 7 7 7 7 6 6 7 7 7 7 7 7 7 7 8 8 8 9 9 9 10 10 10 11 11 12 12 12 13 13 14 14 15 15
15 17 19 21 22 22 21 20 20 20 21 20 20 20 21 21 21 21 20 19 20 21 21 22 23 22 21 20 19 18 17 17 17 17 17 16 15 14 12 12 11 11 11 10 10 10 10 9 9 9 9 8 8 8 8 8 8 8 8 8 8 9 9 9 10 10 10 10 10 11 11 11 12 12 12 13 13 13 13 14 14 14 15 15 16 16
14 15 17 19 21 22 22 21 21 20 20 19 19 19 21 21 21 21 19 18 17 18 19 20 22 22 21 19 18 17 16 16 16 17 18 18 17 16 14 14 13 13 13 12 12 12 11 11 10 10 10 9 9 9 9 9 9 9 10 10 10 10 11 11 11 11 11 11 12 12 12 12 12 13 13 13 13 14 14 14 15 15 15 16 16 17
15 14 14 16 18 20 22 23 22 21 20 20 19 19 20 20 20 20 19 18 17 16 16 18 20 21 21 19 17 16 16 15 15 16 18 19 18 16 16 15 14 14 14 14 13 13 13 12 12 11 11 11 10 10 10 10 10 10 11 11 11 11 11 11 11 11 11 11 11 11 11 11 11 11 12 12 12 12 13 13 14 14 15 16 16 17
14 15 14 15 15 18 22 24 24 23 22 21 20 19 19 19 19 20 20 19 17 15 15 15 17 20 21 19 17 15 15 15 14 15 17 18 18 17 16 15 15 15 15 15 14 14 14 13 13 12 12 12 12 11 11 11 11 11 11 11 11 10 10 10 10 10 10 10 10 10 10 10 10 10 10 11 11 11 12 13 13 13 14 15 15 16
14 16 17 16 16 17 21 23 24 24 23 21 20 20 19 18 18 19 19 19 17 15 13 13 15 18 21 19 17 15 15 15 15 15 17 18 18 17 16 15 15 15 15 15 15 15 15 15 14 14 13 13 13 12 12 12 12 12 11 11 11 11 10 10 10 10 9 9 9 9 9 10 10 10 10 11 11 11 12 12 13 13 13 14 14 15
13 16 18 17 16 16 18 21 23 23 22 21 20 19 19 19 19 19 19 19 18 16 13 12 13 17 21 20 17 15 15 16 15 15 16 18 18 16 15 15 14 14 14 15 15 15 15 15 15 14 14 14 13 13 12 12 12 12 11 11 11 11 10 10 10 10 10 10 10 10 10 10 11 11 11 12 12 12 12 13 13 13 14 14 15 15
13 14 17 18 17 15 15 18 21 22 21 20 19 18 18 18 18 18 19 19 20 18 15 13 15 19 22 21 17 14 15 16 15 15 16 17 17 16 15 14 14 13 14 14 14 15 14 14 14 14 14 13 13 13 12 12 12 12 12 12 11 11 11 11 11 11 11 11 11 11 11 11 12 12 12 12 12 13 13 13 13 14 14 14 15 15
14 14 15 17 17 16 15 15 17 19 20 19 19 19 19 18 17 17 17 18 19 19 16 15 18 22 24 23 19 15 15 15 15 14 14 16 16 15 14 14 14 13 13 13 13 13 13 13 13 13 13 13 13 13 13 13 13 13 13 13 12 12 12 12 12 12 12 12 12 12 12 12 12 12 12 12 12 12 12 12 13 13 13 13 14 14
14 15 14 15 16 17 16 15 15 17 19 18 19 20 22 20 18 16 15 15 17 17 16 16 19 24 26 26 21 16 15 16 16 15 15 16 16 15 15 15 14 13 12 12 12 12 12 12 12 13 13 14 14 13 14 14 14 14 14 13 13 13 13 13 13 13 13 13 12 12 12 12 12 12 12 12 12 12 12 12 12 13 13 13 13 13
13 13 13 13 14 15 16 16 16 18 19 19 18 18 20 21 20 18 14 14 15 15 14 14 19 24 27 28 23 18 15 16 16 16 16 17 17 16 16 15 14 13 12 12 12 12 12 12 12 13 14 15 15 14 14 14 14 14 14 14 14 14 13 13 13 13 13 13 12 12 12 12 12 12 12 12 12 12 12 13 13 13 13 13 13 13
13 13 13 13 14 15 15 16 17 18 19 18 16 14 15 18 20 18 15 15 15 15 12 11 16 23 27 28 25 20 16 15 15 16 16 18 18 18 16 16 15 14 13 12 12 12 12 13 13 14 15 16 16 15 14 14 14 14 14 14 14 13 13 13 13 13 13 13 12 12 12 12 12 12 12 12 13 13 13 13 13 13 14 14 14 14
13 13 13 13 14 15 16 16 16 15 16 16 14 14 14 16 18 18 16 16 16 16 13 10 13 19 23 28 27 23 18 15 15 15 16 17 18 18 16 15 15 14 13 13 13 13 13 14 15 15 16 16 16 15 14 14 14 14 14 13 13 13 13 13 13 13 13 13 13 12 12 12 12 12 12 12 12 13 13 13 13 13 13 14 14 14
13 12 11 10 11 13 15 15 15 14 14 14 14 15 15 16 17 17 16 15 16 16 14 11 11 14 18 24 27 25 19 16 15 15 15 17 17 17 16 15 14 14 13 13 14 13 13 13 14 15 15 15 15 14 14 14 13 13 13 13 13 13 13 13 12 12 12 12 12 12 12 12 12 12 12 13 13 13 13 13 13 14 14 14 14 15
13 12 10 9 10 12 13 14 13 13 13 14 15 15 15 15 15 15 15 15 15 15 14 11 8 8 12 20 26 27 22 18 16 15 15 16 17 17 16 15 14 14 13 13 14 14 13 13 13 13 13 13 13 12 13 13 13 12 12 12 12 12 12 12 12 12 12 12 12 12 12 12 13 13 13 13 14 14 14 14 14 14 15 15 15 15
13 12 11 10 10 11 13 14 13 13 13 14 14 15 14 13 13 13 13 14 14 13 12 10 5 2 6 14 22 27 25 19 16 15 14 15 16 17 16 16 15 14 13 13 13 13 13 13 13 12 12 11 11 11 12 12 12 12 12 12 12 12 12 12 12 13 13 13 13 13 13 13 13 14 14 14 14 14 15 15 15 15 15 15 15 15
13 13 12 11 11 12 13 14 14 14 14 14 14 14 14 13 13 13 13 13 13 12 11 10 7 3 2 6 15 23 26 19 15 15 15 15 16 17 17 17 15 14 13 13 13 13 12 12 12 11 11 10 10 10 11 11 12 12 12 13 13 13 13 13 13 13 13 13 13 14 14 14 14 14 15 15 15 15 15 15 15 15 15 15 15 15
13 14 14 13 12 12 13 15 15 15 15 14 13 13 13 13 13 13 13 13 13 12 11 9 9 8 7 7 13 22 25 19 15 15 15 14 15 18 19 18 17 16 14 14 13 12 12 11 11 11 10 9 9 10 11 12 12 12 13 13 13 13 13 13 13 13 13 14 14 14 14 14 15 15 15 15 15 15 15 15 15 15 15 15 15 15
14 15 16 15 13 13 14 16 16 16 14 14 13 12 12 12 13 13 13 13 14 14 12 10 9 9 9 11 15 22 25 21 17 15 15 13 15 18 20 20 19 18 16 15 13 12 12 12 12 11 10 10 10 10 12 12 13 13 13 13 13 13 13 14 14 14 14 14 14 15 15 15 14 14 15 15 15 15 15 15 15 15 15 15 15 15
14 16 17 17 15 13 13 15 17 16 14 13 13 12 12 12 12 13 13 14 15 15 14 11 10 9 9 10 14 20 24 23 20 16 14 13 14 17 20 21 20 19 18 15 13 12 12 13 13 13 12 11 11 12 13 13 13 13 13 13 13 13 13 14 14 14 14 14 15 15 15 14 14 14 14 15 15 15 15 15 15 15 15 15 16 16
16 16 18 19 18 16 15 16 17 17 15 14 14 13 12 12 12 12 13 14 15 15 14 12 10 7 6 8 13 19 23 23 20 16 13 11 13 17 20 21 20 19 18 17 15 13 13 14 14 14 14 13 13 13 13 13 13 13 13 14 13 13 13 14 14 15 15 15 15 15 15 15 15 15 15 15 15 15 15 15 15 16 16 16 16 16
18 18 19 19 19 18 17 17 18 18 17 16 15 14 13 12 12 12 13 13 14 14 13 11 8 5 4 7 12 18 22 22 20 16 13 8 10 15 20 21 20 19 18 18 17 15 14 14 15 15 14 14 14 14 14 14 14 14 14 14 14 13 13 14 14 15 16 16 16 16 16 15 15 15 15 15 15 15 16 16 16 16 16 16 16 16
19 19 18 18 18 18 17 17 17 18 19 18 16 15 14 12 11 11 12 13 14 13 12 10 9 8 7 8 11 17 20 21 20 18 14 10 11 14 18 20 19 18 18 18 18 17 15 15 14 15 15 15 14 14 14 14 14 14 14 14 14 13 13 14 15 16 16 16 16 16 16 16 15 15 15 15 16 16 16 16 16 17 17 17 16 16
19 19 18 17 17 16 16 16 17 17 18 18 18 17 16 14 14 14 16 17 17 16 15 14 14 12 9 8 10 15 18 20 20 19 15 12 12 14 17 19 19 18 18 19 18 16 16 15 14 14 15 15 15 14 14 14 14 14 15 15 14 14 14 15 15 16 16 16 16 16 16 16 16 16 16 16 16 16 16 17 17 17 17 17 17 17
18 18 17 17 16 15 15 16 16 16 17 17 18 19 19 18 17 19 20 20 20 19 17 15 13 12 12 10 10 12 15 18 20 19 16 13 12 14 17 19 19 18 19 20 19 17 16 14 14 14 15 15 15 14 14 14 14 15 15 15 15 14 15 15 16 16 16 16 17 17 17 17 17 17 17 17 17 17 18 18 18 18 18 18 18 17
17 17 17 17 16 16 16 16 16 16 16 16 16 18 19 20 20 20 20 19 19 18 15 10 7 7 11 10 9 11 14 16 18 19 17 14 12 12 16 18 19 18 19 19 18 17 15 13 13 14 15 15 15 15 15 15 15 16 16 16 16 15 15 16 16 17 17 17 18 18 18 18 18 18 18 18 18 18 19 19 19 18 18 19 20 20
18 18 18 18 17 17 16 16 16 16 16 16 15 16 18 20 19 18 16 17 17 15 13 9 5 4 5 7 8 10 12 14 16 18 18 14 11 12 15 17 17 17 16 17 16 15 13 12 12 14 15 15 15 15 16 16 17 17 18 18 17 16 16 17 17 17 17 18 18 18 18 18 18 18 18 18 18 19 20 20 20 19 19 21 21 21
18 18 18 18 18 18 17 17 17 16 16 16 15 16 17 18 17 15 14 15 15 14 11 10 8 6 5 8 9 10 11 13 14 16 18 14 12 12 15 16 16 15 14 13 13 13 11 11 12 14 16 16 16 16 17 17 18 19 20 20 19 18 17 18 17 17 18 18 19 19 19 19 19 18 18 18 18 19 20 21 21 20 21 22 23 23
19 19 19 19 19 19 19 19 18 17 16 16 16 16 16 16 15 13 12 13 13 12 10 9 9 8 7 7 6 7 9 12 14 15 16 13 11 11 14 14 15 15 14 11 8 7 8 11 13 15 16 16 16 17 18 19 19 20 21 20 19 18 17 18 18 18 18 19 19 19 19 19 19 18 18 18 19 19 20 21 22 22 22 23 24 24
19 20 20 20 20 20 20 19 19 18 17 17 16 16 16 16 15 13 12 11 11 11 10 9 9 9 8 5 3 2 4 11 14 14 14 13 11 11 12 12 13 14 14 10 4 1 4 8 13 16 17 17 17 18 19 19 20 21 21 21 20 18 17 17 17 18 19 20 19 19 19 19 19 18 18 18 19 19 20 21 22 22 23 24 24 24
18 19 19 19 19 19 20 19 19 19 18 18 18 17 17 16 15 15 14 12 11 10 10 9 9 9 9 6 3 3 5 11 14 14 14 12 11 11 12 11 12 13 13 11 7 3 3 4 9 16 17 17 17 18 19 20 21 22 22 21 20 19 17 16 16 18 20 20 20 20 19 19 18 18 18 18 18 19 20 21 21 22 23 23 23 23
17 18 19 19 19 19 19 19 19 19 19 19 19 18 18 17 17 16 15 14 12 11 10 9 9 9 9 9 8 7 10 13 15 15 15 13 11 11 12 12 12 12 12 11 9 7 5 5 8 12 15 16 17 18 19 21 22 22 22 21 20 19 18 16 15 16 19 20 20 20 19 19 18 17 17 17 18 19 20 20 21 21 22 22 23 23
17 18 19 19 19 19 19 20 20 19 19 19 19 19 19 18 18 17 16 15 14 12 11 10 9 9 9 9 9 11 13 15 16 16 17 15 12 11 13 13 13 12 11 10 9 8 8 9 10 11 12 14 16 17 19 20 22 23 23 22 21 20 19 17 15 15 17 19 20 20 19 19 18 17 17 17 18 18 19 19 20 20 21 22 22 23
17 17 18 19 19 18 19 19 19 19 19 19 20 20 19 19 19 18 17 16 15 13 12 11 11 10 10 9 9 10 13 16 17 17 18 17 14 12 12 13 13 13 11 10 9 8 7 9 10 10 11 12 14 16 18 20 22 22 23 22 22 21 20 18 15 14 15 17 18 19 19 18 18 17 17 17 17 18 18 19 19 20 20 21 21 22
17 17 17 18 18 18 18 18 19 19 19 19 20 20 20 19 19 19 18 17 16 14 13 13 12 12 12 11 11 12 13 15 16 17 17 17 16 14 12 12 14 15 12 11 10 9 8 8 9 11 11 11 11 14 17 20 21 22 22 23 22 22 21 19 16 14 14 15 16 17 18 18 17 17 17 16 17 17 18 18 19 19 20 20 20 21
16 16 17 17 17 17 17 18 18 18 19 19 19 20 20 20 20 19 18 17 17 16 15 14 13 13 12 12 11 12 13 14 15 15 16 16 16 14 12 13 15 16 14 13 11 11 9 8 8 9 10 10 10 12 16 19 21 21 21 22 22 21 22 20 18 16 15 15 15 15 16 16 16 16 16 16 16 18 19 19 19 19 19 20 20 20
16 16 17 17 17 17 17 18 18 18 19 19 19 19 19 20 20 19 19 18 17 17 17 16 15 13 12 11 11 11 13 13 14 15 15 15 15 14 13 13 15 16 16 15 14 12 10 7 5 5 6 10 12 14 16 18 18 19 19 20 20 20 21 20 19 17 16 16 15 15 15 15 16 17 16 16 16 18 19 20 19 19 19 20 20 19
17 17 17 17 17 18 18 18 18 18 19 19 19 19 19 19 20 20 19 18 17 17 17 16 15 14 13 12 11 11 12 13 13 13 14 14 14 14 14 13 14 15 16 16 15 13 11 8 6 4 5 8 12 15 17 17 17 17 18 18 19 19 20 19 18 17 17 17 16 15 14 15 16 17 17 16 16 17 18 19 19 18 19 20 21 19
17 17 17 17 18 18 18 18 18 18 18 18 18 19 19 20 20 20 20 19 18 18 18 17 16 15 14 13 12 12 12 12 12 12 12 13 14 15 15 15 14 15 15 15 15 14 12 10 10 10 10 10 11 13 15 16 17 17 17 15 15 16 19 18 17 16 17 17 17 16 15 15 15 16 16 16 16 16 17 18 18 17 18 19 19 19
17 17 17 18 18 18 18 18 18 18 18 18 18 19 19 19 20 20 20 20 20 20 20 19 18 17 16 15 14 14 13 12 11 11 12 13 15 16 16 16 15 15 15 15 15 14 13 12 11 12 12 12 13 14 15 16 17 17 16 14 14 16 18 17 16 16 17 17 17 17 16 15 15 15 15 15 15 16 16 17 17 17 17 18 18 16
17 17 18 18 18 18 18 18 18 18 18 18 18 19 19 19 19 19 20 20 21 21 21 21 20 19 18 17 17 16 15 14 13 12 13 15 16 16 16 16 16 16 16 15 15 15 14 13 12 12 13 13 13 13 14 16 18 18 17 16 17 17 17 16 16 17 17 17 18 17 17 17 16 15 14 14 14 15 15 15 16 16 16 17 18 16
17 17 18 18 18 18 17 18 18 18 18 18 18 19 20 20 19 19 19 20 20 21 21 21 20 18 17 17 17 17 17 15 14 14 14 16 16 17 17 16 16 16 16 15 15 15 15 14 13 13 13 13 13 13 13 15 17 18 18 18 17 15 12 14 17 19 18 18 18 18 18 18 18 17 14 12 12 13 14 14 15 15 16 17 18 17
17 17 18 18 18 18 18 18 19 19 19 19 19 19 20 21 21 20 20 20 20 20 20 19 18 16 15 15 15 16 17 16 16 16 16 17 17 18 18 18 17 16 16 15 15 14 14 14 14 14 13 14 14 13 13 14 15 16 17 18 17 14 12 14 17 18 19 19 18 18 18 18 18 17 16 13 11 11 11 12 13 14 15 15 17 17
18 18 18 18 18 19 19 19 19 19 19 19 19 20 21 21 21 21 20 20 20 20 20 18 16 14 13 13 14 15 16 16 17 18 19 19 19 19 20 19 18 17 16 15 14 14 13 13 13 13 13 13 13 13 13 13 14 15 16 17 17 16 16 16 17 17 17 18 19 19 18 18 18 17 16 14 13 11 10 10 10 12 13 14 16 17
19 19 19 19 19 20 20 19 20 20 20 20 20 20 21 21 21 21 21 20 20 19 19 17 15 12 11 12 13 14 15 16 17 19 20 21 21 21 22 21 20 18 17 15 14 13 12 11 11 11 11 12 12 12 12 13 14 14 16 16 17 17 17 17 17 17 18 18 19 20 20 19 18 16 15 14 14 13 10 9 9 10 12 13 14 16
20 20 20 20 20 20 20 20 20 20 20 20 20 20 20 20 20 20 20 20 19 18 17 16 14 13 12 13 13 14 14 15 16 18 20 21 22 22 23 22 21 19 17 16 15 13 11 9 9 8 9 9 9 10 12 14 14 14 15 16 16 16 16 17 18 18 19 19 19 20 20 19 17 15 14 14 14 13 11 8 8 9 11 12 13 15
20 20 20 20 20 20 20 20 20 20 20 20 20 20 20 20 19 19 19 19 18 17 16 15 14 13 13 14 15 15 14 14 15 17 19 20 22 22 23 23 22 20 18 17 16 14 11 9 8 7 7 7 7 9 11 13 14 15 15 16 16 16 16 17 18 19 20 20 20 20 20 18 16 14 14 14 13 12 11 8 8 9 10 11 11 13
21 20 20 20 20 20 20 20 20 20 19 19 20 20 20 20 19 18 18 18 17 16 16 15 14 14 14 15 16 16 15 15 16 17 18 19 20 21 22 22 21 21 19 18 17 16 13 11 9 8 8 8 8 9 11 13 15 15 16 16 15 15 16 17 18 19 20 21 21 20 19 18 16 15 14 12 11 11 11 9 8 9 10 10 10 11
21 21 21 20 19 19 19 19 19 19 19 19 19 19 20 20 20 19 19 18 18 17 16 16 15 14 14 15 16 16 16 16 16 17 18 19 19 20 20 20 20 19 18 18 18 17 15 13 12 11 11 10 11 11 12 14 15 16 16 16 16 16 16 16 18 19 20 20 20 20 19 18 17 16 14 12 10 10 10 9 9 9 10 10 9 9
21 21 21 20 19 19 19 19 18 18 18 18 18 18 19 19 20 20 20 19 18 18 18 17 16 15 14 15 16 16 16 16 16 16 17 18 19 19 19 19 18 17 15 15 14 14 13 12 11 11 13 13 13 13 14 15 16 16 16 16 17 17 16 17 18 19 20 20 19 19 18 18 17 17 15 12 10 9 9 9 9 10 10 9 8 7
Wind_Direction
45 48 51 54 56 57 57 60 61 58 56 55 54 55 57 59 61 61 60 59 59 60 61 63 65 66 65 63 60 58 56 54 52 51 50 49 48 47 46 44 43 40 37 35 33 31 28 26 25 24 22 18 14 10 8 5 4 2 2 0 358 356 354 352 350 347 343 340 338 335 333 328 324 322 320 314 310 308 305 304 302 300 299 297 295 293
47 50 51 54 55 55 56 60 60 57 53 50 49 51 53 57 59 61 60 60 59 60 60 61 62 63 63 61 58 54 52 50 47 45 44 42 41 40 39 38 36 34 32 30 28 26 24 23 21 20 19 17 13 8 5 2 359 358 355 353 349 345 341 339 338 337 334 333 331 329 328 324 320 315 312 309 306 304 303 302 302 301 300 298 296 294
42 45 47 50 50 50 50 54 58 58 55 51 50 50 52 54 56 57 58 57 57 56 56 55 56 57 58 58 54 50 47 46 43 40 39 39 38 38 37 37 36 35 34 33 32 31 29 28 26 24 21 18 14 9 5 1 358 355 352 347 343 339 334 331 329 327 325 324 323 322 320 317 314 311 308 306 305 304 303 303 302 300 299 297 295 293
36 37 41 44 45 45 45 48 52 55 57 55 54 54 54 53 53 54 56 57 56 53 50 50 50 52 54 55 53 48 45 44 42 40 38 38 40 40 40 40 41 41 41 40 39 37 35 33 31 27 24 20 15 10 5 1 358 355 351 347 343 340 336 333 330 328 326 325 323 322 320 318 316 314 312 310 309 308 305 304 302 300 299 297 295 294
33 34 37 41 42 41 41 44 47 51 54 55 56 57 56 54 53 52 54 57 58 55 49 46 45 47 49 52 53 49 43 43 43 40 37 38 41 42 43 43 43 44 44 43 41 38 36 34 31 28 24 21 16 12 9 5 3 0 358 355 353 351 348 347 345 343 342 340 337 335 333 330 327 325 322 319 317 314 311 308 306 304 302 300 298 297
33 35 39 42 42 39 37 39 41 43 45 48 52 56 57 56 53 51 50 54 57 57 52 46 42 42 44 49 54 53 47 43 41 38 35 36 39 42 43 43 43 44 44 43 41 38 36 35 33 31 28 26 23 21 20 18 17 16 14 12 11 10 9 7 5 2 0 357 353 349 344 340 337 334 330 326 323 320 316 313 311 308 306 304 302 300
35 37 39 41 42 40 37 36 36 37 37 38 43 48 53 55 54 51 48 49 52 55 52 45 39 37 37 42 50 57 54 46 39 33 30 31 36 41 43 43 44 46 46 45 42 40 40 39 39 38 37 36 35 34 33 33 31 29 27 25 23 21 18 16 12 8 3 360 355 350 345 341 337 334 331 329 327 323 319 316 314 312 310 308 306 303
34 35 36 36 36 36 36 34 34 35 36 36 37 37 39 43 46 47 47 46 46 46 44 40 35 32 31 34 43 55 58 51 41 32 28 28 32 39 44 44 46 49 50 48 45 44 44 45 45 45 44 43 43 42 40 38 35 33 30 27 24 20 17 14 9 5 1 358 354 350 346 342 339 336 333 331 328 325 322 320 317 315 314 311 309 307
36 35 34 34 33 32 32 31 30 32 36 38 39 36 31 29 31 35 38 39 39 38 37 37 34 30 27 28 37 53 60 57 48 39 32 29 32 39 46 46 48 50 52 50 48 47 48 48 48 47 45 44 43 41 38 35 32 29 27 24 21 18 15 11 8 5 1 358 355 351 348 345 342 339 336 333 331 328 324 322 318 316 314 311 309 307
38 37 36 35 35 35 34 30 26 26 32 37 40 39 35 28 22 21 24 26 30 34 36 39 36 30 25 25 34 52 64 64 58 48 39 31 34 42 51 52 52 51 50 50 49 49 49 48 46 43 41 40 38 36 33 31 29 26 24 22 19 16 14 11 8 5 2 360 357 354 351 348 345 342 339 336 333 330 326 323 320 316 313 310 308 305
32 35 36 34 34 35 35 31 25 22 25 30 33 34 33 28 22 17 15 13 18 27 38 43 38 32 28 24 30 48 64 66 61 53 40 31 35 47 57 58 55 51 49 48 47 47 46 45 41 38 35 35 34 32 29 28 26 24 22 20 18 15 13 10 7 5 2 360 357 355 352 350 346 343 340 337 334 330 327 324 320 317 314 312 309 307
27 29 33 33 31 30 28 25 21 20 22 24 25 24 22 20 18 16 13 9 8 15 31 45 42 35 30 26 28 39 56 58 57 51 40 31 35 45 55 57 55 51 46 43 42 42 41 39 36 33 32 32 33 30 27 25 23 22 20 18 15 13 11 8 6 3 1 358 356 354 351 348 345 341 338 336 332 329 326 323 321 319 316 314 312 310
26 26 29 31 31 28 23 19 17 18 20 21 20 16 9 8 10 13 14 12 9 11 24 48 47 37 29 26 27 33 42 48 52 51 43 34 33 38 47 49 49 46 41 37 35 35 34 34 33 32 31 31 30 28 25 23 21 20 18 16 14 11 8 6 3 0 358 356 354 351 349 346 342 339 336 334 331 328 326 323 321 319 316 315 313 311
23 23 27 29 30 27 24 20 18 18 18 18 14 8 3 5 9 13 14 12 12 17 28 54 54 41 30 25 26 29 34 39 44 47 45 37 32 33 38 41 43 41 36 32 30 30 30 29 29 30 30 29 27 25 22 20 19 17 16 14 11 9 6 3 1 358 356 354 352 350 347 344 341 338 335 333 330 328 325 323 321 319 318 316 314 312
22 23 25 27 27 26 24 21 19 17 15 12 8 5 6 9 13 15 15 12 12 18 29 48 55 45 33 25 23 25 29 33 35 36 38 37 32 28 33 35 38 38 33 29 26 25 26 25 24 25 26 26 23 20 18 16 16 15 13 11 9 7 4 2 360 357 355 352 350 347 345 342 339 336 334 332 330 328 326 325 323 322 320 318 316 314
25 26 26 25 25 26 25 21 17 13 10 7 7 8 10 12 14 16 15 12 12 16 23 28 36 39 31 22 19 20 22 26 28 27 27 34 30 24 28 30 33 34 31 25 21 19 20 19 19 20 21 20 18 15 13 12 11 11 10 9 7 5 3 1 359 357 354 351 349 345 343 341 339 337 336 335 334 332 330 329 327 325 322 320 318 316
28 28 26 24 23 23 22 19 16 12 9 8 10 12 13 14 16 16 15 14 14 17 21 23 20 5 12 16 16 16 16 19 23 25 25 30 26 22 24 25 27 28 28 22 17 14 13 12 13 13 14 13 10 8 7 6 6 7 7 7 6 4 2 1 358 356 353 350 348 345 343 342 341 341 339 338 336 334 332 331 328 326 323 321 318 315
30 28 26 25 23 21 19 16 13 11 10 9 10 11 14 17 19 19 18 18 17 17 18 23 26 22 1 12 12 11 12 16 22 24 23 24 23 21 20 23 24 25 24 20 15 11 9 8 8 8 6 4 2 0 1 1 1 2 3 3 3 2 0 358 356 353 351 349 346 344 342 342 343 342 340 338 336 335 332 330 328 326 323 320 317 314
31 29 27 24 22 21 21 17 13 11 10 8 7 9 12 15 17 18 18 17 15 14 14 17 20 24 27 26 16 12 10 16 24 25 17 15 17 19 17 19 20 21 21 19 16 13 10 9 8 7 5 1 358 356 357 358 358 358 358 358 358 357 356 354 352 350 348 347 345 345 344 344 342 341 339 338 336 334 332 329 327 324 322 319 315 313
34 32 29 25 23 22 23 20 16 13 10 8 9 11 12 13 14 14 11 9 7 6 7 8 9 13 23 29 22 15 12 17 24 23 13 10 13 15 15 14 14 14 16 18 19 16 12 10 10 12 11 7 1 357 357 357 356 356 355 355 355 355 354 353 351 349 348 347 346 345 344 343 341 340 340 338 337 334 332 330 328 326 324 321 318 316
36 33 31 29 27 27 26 23 19 16 14 14 14 14 13 13 12 10 6 1 358 357 357 354 352 1 20 33 30 21 13 18 20 17 9 8 10 12 12 10 9 9 9 14 18 19 15 13 14 16 17 12 5 0 359 357 355 354 353 353 355 355 354 353 353 351 350 349 348 346 345 344 343 342 341 340 338 337 336 334 333 331 329 326 324 321
38 33 32 33 32 31 29 27 23 21 21 23 20 15 12 10 9 6 1 357 353 350 347 342 346 0 27 46 38 24 15 19 20 16 10 7 6 7 8 7 6 5 4 6 10 15 16 16 18 19 18 11 5 2 360 357 354 353 354 357 358 358 357 356 356 355 354 353 351 349 348 347 346 346 344 343 342 342 341 340 339 337 335 333 330 328
43 38 35 33 32 31 31 30 27 25 26 30 28 22 17 15 12 9 3 2 360 358 357 2 12 32 64 61 40 25 18 19 20 20 17 13 4 3 4 3 3 1 359 1 3 7 12 15 18 18 13 8 5 3 360 357 354 355 358 0 1 359 357 357 358 358 357 355 354 352 350 350 349 349 348 347 346 346 346 345 344 342 340 338 336 334
44 41 37 34 32 31 30 31 29 28 28 31 34 34 31 29 27 27 25 23 21 22 26 34 44 59 80 70 45 28 19 18 20 21 21 15 5 2 2 2 360 356 354 358 1 3 7 12 15 14 9 8 7 5 1 357 356 358 360 0 359 357 355 357 358 359 358 357 356 355 354 353 352 351 350 349 349 349 349 347 346 344 343 341 339 336
41 39 37 35 34 33 33 33 33 31 30 32 34 36 38 39 42 44 44 39 36 37 44 49 47 44 50 56 46 32 20 18 20 22 20 12 5 3 4 2 359 354 350 355 1 5 5 9 11 10 7 9 11 9 4 359 358 359 359 358 357 355 354 356 358 358 357 357 358 358 357 356 355 354 353 352 351 351 350 349 347 346 345 343 340 337
39 38 37 36 35 34 35 35 35 35 34 33 33 34 36 39 42 43 41 36 33 34 37 38 31 20 16 21 32 31 20 18 20 22 20 13 7 5 4 2 359 354 349 352 358 2 1 3 4 4 3 7 10 9 6 2 360 359 358 357 355 355 356 357 358 358 358 358 359 359 359 358 357 356 355 354 354 353 352 350 348 348 347 346 345 343
38 37 36 35 34 33 33 33 35 36 36 36 34 33 34 37 39 38 34 29 28 29 32 31 22 7 5 6 17 24 19 17 18 20 20 18 15 8 3 1 359 354 349 349 352 355 355 356 357 357 358 3 6 7 7 4 1 359 358 357 355 355 358 359 359 358 358 358 359 359 358 358 357 357 357 356 356 354 352 351 350 350 350 350 351 351
36 35 35 35 34 33 32 32 32 33 34 35 33 32 33 36 39 38 33 28 28 30 32 31 23 4 358 351 3 17 17 17 16 16 17 20 20 11 2 360 358 354 348 344 345 349 352 353 353 353 355 359 3 5 6 5 3 1 0 359 358 359 0 1 0 358 358 359 359 358 357 357 356 356 357 357 356 355 353 351 351 352 352 354 355 355
36 35 35 34 34 33 32 32 32 32 32 32 31 31 32 34 36 35 32 30 29 28 27 25 21 11 358 353 2 13 17 16 13 11 12 17 17 8 359 358 357 353 346 340 342 348 352 353 353 352 353 357 1 3 4 4 4 3 2 1 1 2 4 5 3 360 359 359 358 358 357 356 356 356 356 356 356 355 354 353 353 353 354 355 355 355
33 34 35 35 34 33 33 34 33 32 31 30 30 30 31 31 29 25 23 25 25 23 18 14 10 4 357 355 359 8 12 9 5 3 4 8 4 355 352 352 353 351 347 341 340 345 349 351 352 353 353 356 359 2 4 4 4 4 3 2 1 3 6 7 5 2 0 359 358 357 356 355 355 355 356 356 356 355 355 355 355 355 354 354 354 353
29 30 30 32 32 33 33 33 33 33 32 31 30 30 29 27 23 16 10 9 12 14 9 3 357 355 354 351 350 351 354 356 355 355 355 358 352 342 341 342 345 348 350 347 338 311 337 344 349 352 354 356 359 2 3 4 4 4 3 1 360 360 2 5 5 4 3 1 359 358 356 355 354 354 355 356 356 356 356 357 357 356 355 354 353 351
27 27 27 28 29 29 29 30 31 31 30 29 29 27 25 22 19 13 6 360 358 359 358 353 349 348 350 349 347 336 335 345 348 348 348 349 344 337 336 334 334 339 345 347 341 326 322 326 340 346 351 354 358 1 3 3 4 3 2 0 358 357 358 2 5 6 5 3 1 359 357 356 355 355 355 356 356 356 357 359 359 358 356 354 352 350
27 27 26 26 26 26 25 26 26 27 26 26 25 23 22 19 16 11 6 360 354 348 344 340 338 337 339 339 338 336 337 342 344 344 342 341 338 333 331 328 325 327 333 338 338 333 322 318 328 337 344 352 356 359 1 2 2 2 2 360 357 355 356 359 3 5 6 5 3 1 359 357 356 356 356 357 357 356 357 359 360 359 357 355 352 350
28 27 26 25 24 23 22 22 22 22 21 20 19 18 17 16 13 10 6 2 355 348 340 333 327 324 323 326 330 332 335 341 346 346 340 335 331 327 325 322 321 320 323 326 329 328 324 325 328 333 341 350 355 358 359 360 0 1 2 360 357 355 354 356 359 1 3 4 3 2 1 358 357 356 357 358 358 357 357 357 359 359 358 356 354 351
28 26 25 24 22 20 19 18 17 15 14 14 13 14 14 13 11 9 7 5 0 354 346 338 330 323 316 311 311 317 326 340 350 351 343 332 325 321 320 320 319 318 317 317 319 320 320 323 328 334 340 348 353 355 356 357 357 358 0 0 359 357 355 355 355 355 357 360 2 3 2 0 359 358 358 358 358 357 357 357 358 359 359 358 357 355
26 24 22 20 17 16 14 13 12 10 8 8 9 10 10 10 10 9 8 9 8 4 357 350 342 334 326 317 310 310 321 340 352 354 346 336 326 319 314 318 320 319 313 312 313 314 314 317 326 336 345 349 351 351 351 352 353 355 357 359 359 358 357 357 354 352 351 354 357 1 3 2 1 359 358 357 357 356 357 359 360 360 360 1 2 2
25 22 19 16 14 13 11 9 8 5 3 4 5 6 6 7 8 9 9 12 13 12 9 4 358 350 342 336 329 326 331 340 347 350 347 342 334 324 313 317 324 324 315 310 309 310 311 315 325 338 348 351 348 344 344 345 348 351 352 354 355 356 357 357 356 351 348 348 351 356 2 4 3 0 359 359 359 358 359 0 2 2 2 4 7 9
22 19 16 13 11 9 8 6 4 3 1 1 2 3 5 6 7 9 10 13 15 15 13 12 12 10 5 358 349 342 340 339 340 342 344 344 341 335 324 322 327 331 327 320 314 311 311 314 322 335 344 345 342 339 337 339 342 344 345 347 350 352 354 356 354 351 346 344 345 350 357 3 3 3 2 2 1 359 358 359 1 2 2 4 7 12
20 16 13 10 8 6 5 3 2 1 1 2 3 5 6 8 10 11 13 14 14 14 14 16 18 20 20 15 5 353 345 339 337 339 343 347 350 348 341 333 332 336 338 335 329 323 318 319 323 328 332 333 333 333 334 336 338 338 338 341 344 347 350 352 351 349 345 342 341 344 350 358 2 3 4 4 2 358 355 356 358 360 1 4 5 7
17 14 11 8 6 4 3 2 1 2 3 5 6 8 9 9 10 12 14 15 15 15 16 19 23 25 25 20 12 2 354 348 346 347 351 356 359 358 353 347 342 342 344 343 340 336 331 327 326 326 325 325 325 327 329 332 334 335 336 337 338 339 340 344 346 346 344 342 341 341 344 351 357 2 4 4 2 358 355 355 357 359 2 4 4 3
15 11 8 5 4 4 4 4 4 5 6 7 8 9 9 8 7 7 8 11 13 14 16 19 22 24 26 22 16 11 6 3 3 4 4 5 5 3 1 357 354 351 349 347 345 342 338 333 329 327 326 324 323 323 324 327 330 333 335 333 329 328 331 336 341 343 344 343 343 342 342 345 349 355 360 3 3 1 359 357 357 0 4 7 8 6
13 9 5 2 2 2 3 5 6 7 9 10 9 9 8 7 6 4 3 5 7 9 11 13 12 12 13 13 13 14 13 12 12 12 11 9 8 7 6 5 3 360 355 350 347 345 342 338 332 328 326 324 324 323 324 326 330 333 335 332 329 328 330 336 341 344 344 344 344 344 343 342 342 345 350 359 2 2 1 360 0 2 5 8 10 11
10 7 4 3 4 4 5 6 7 8 9 10 10 10 9 8 6 5 3 2 3 5 6 6 4 1 358 359 4 8 12 14 15 14 13 11 10 9 10 10 9 6 1 354 348 344 343 341 337 331 329 326 323 321 321 324 329 334 337 336 333 331 331 334 339 342 344 345 345 345 344 342 340 339 341 349 358 2 2 2 2 4 7 9 11 11
8 6 5 5 6 7 8 9 8 8 10 10 10 9 8 8 7 5 3 2 3 3 2 1 359 357 354 354 357 1 6 10 13 14 13 12 12 12 12 13 13 12 7 359 350 344 341 338 336 335 332 328 324 323 324 325 329 333 337 339 339 336 332 332 336 340 343 346 347 347 345 343 341 339 338 341 348 355 358 0 2 5 8 10 11 11
9 8 7 8 8 9 9 9 9 9 10 10 9 8 7 7 6 5 2 0 359 358 356 355 353 351 349 351 354 358 2 7 11 13 14 14 15 16 16 16 17 16 13 7 359 350 341 334 332 333 333 329 327 326 328 329 330 334 338 342 342 341 338 339 340 342 343 345 346 346 346 344 341 339 338 339 341 344 350 356 0 4 8 11 11 11
10 9 9 8 9 9 9 8 8 9 9 9 9 7 6 5 4 3 1 359 356 353 353 352 350 346 344 345 350 355 359 4 8 11 12 14 16 18 19 20 20 19 16 13 8 2 354 343 335 331 329 327 328 332 335 336 336 336 339 343 344 344 345 346 346 346 345 345 344 345 345 344 342 340 339 339 339 341 345 352 360 5 9 12 13 12
10 9 8 8 9 9 9 8 8 8 8 6 5 4 3 2 1 360 359 358 356 352 350 350 350 349 348 351 354 356 358 1 5 8 9 11 13 15 17 19 21 22 21 18 15 12 7 360 348 338 332 328 328 332 339 344 344 342 341 343 345 346 346 347 347 348 348 346 345 345 346 344 342 341 341 341 340 341 345 351 1 8 11 12 14 14
10 9 8 8 8 9 8 7 7 6 5 2 1 1 1 360 358 356 355 356 355 352 349 349 350 353 355 360 3 3 3 3 5 6 7 8 9 11 13 15 18 21 22 23 22 20 19 14 6 357 349 345 338 336 339 345 348 348 346 346 346 346 345 347 348 348 349 348 348 348 347 344 341 338 338 339 340 341 344 349 360 8 11 12 15 17
12 10 9 8 8 7 5 4 4 2 1 359 357 358 359 360 360 359 356 356 355 353 352 352 353 356 0 4 6 6 7 7 7 7 7 6 6 7 9 10 12 15 17 20 22 23 24 25 23 19 12 5 358 351 348 350 351 352 352 350 349 347 346 346 347 348 349 349 350 351 351 349 347 345 341 337 337 338 342 347 355 3 7 10 14 19
12 11 10 8 6 4 1 0 359 358 356 356 355 354 356 358 0 1 1 0 359 359 359 359 359 0 3 5 6 6 7 7 7 7 7 5 5 5 4 4 6 8 9 12 14 15 17 21 25 26 21 14 6 1 358 356 355 355 355 355 353 351 347 346 347 349 350 349 350 351 353 353 354 353 349 342 337 336 340 345 350 354 360 4 11 19
11 10 9 8 5 3 0 359 358 357 356 354 353 354 355 358 1 2 3 3 2 2 3 4 5 6 6 6 6 6 6 7 7 6 5 4 4 3 1 1 1 2 3 4 5 6 6 9 13 16 17 14 9 6 5 2 359 356 355 355 355 354 351 349 349 350 351 351 351 353 354 355 356 356 353 347 341 338 340 342 343 345 351 356 3 16